{"data":{"norad_id":59941,"intl_designator":"2024-106V","name":"STARLINK-31948","alt_names":[],"object_type":"PAYLOAD","status":"ACTIVE","operator":null,"country":"US","launch_date":"2024-06-01","launch_site_code":"AFETR","launch_vehicle":null,"mission":null,"orbit_class":"UNKNOWN","rcs_meters":null,"size_class":null,"mass_kg":null,"dimensions":null,"purposes":["comms"],"wikipedia_slug":null,"has_3d_model":false,"image_url":null,"decayed_at":null,"tle_current":{"epoch":"2026-09-21T10:05:14.031456Z","epoch_age_seconds":98120,"freshness":"FRESH","line1":"1 59941U 24106V   26264.42030129 -.00001424  00000+0 -42269-4 0  9991","line2":"2 59941  42.9987 303.8828 0000228 252.2750 107.8077 15.27558592130492","mean_motion":15.27558592,"eccentricity":2.28e-5,"inclination_deg":42.9987,"raan_deg":303.8828,"arg_perigee_deg":252.275,"mean_anomaly_deg":107.8077,"bstar":-4.2269e-5,"rev_number":13049,"period_min":94.26806981686,"perigee_km":482.95676353723,"apogee_km":483.26963654635,"semimajor_km":6861.2502000418,"source":"CELESTRAK","updated_at":"2026-09-22T09:00:49.114759Z"}}}